This is the latest recevied weather packets stored in our database for station/object N6GPM. If no packets are shown the sender has not sent any weather packets the latest 10 day(s).
| Time | Temp. | Humidity | Pressure | Rain* | Wind** | Luminosity | Snow |
|---|---|---|---|---|---|---|---|
| 1788144881 | 26.67° C | 48% | 1015.4 hPa | 0 mm | - | 0 W/m² | - |
| 1788144577 | 26.67° C | 46% | 1015.2 hPa | 0 mm | - | 0 W/m² | - |
| 1788144277 | 27.22° C | 45% | 1015.4 hPa | 0 mm | - | 0 W/m² | - |
| 1788143971 | 27.22° C | 44% | 1015.2 hPa | 0 mm | - | 0 W/m² | - |
| 1788143670 | 27.78° C | 43% | 1015.2 hPa | 0 mm | - | 0 W/m² | - |
| 1788143365 | 27.78° C | 39% | 1015.3 hPa | 0 mm | - | 1 W/m² | - |
| 1788143064 | 27.78° C | 39% | 1014.9 hPa | 0 mm | - | 2 W/m² | - |
| 1788142764 | 28.33° C | 39% | 1015.2 hPa | 0 mm | - | 4 W/m² | - |
| 1788142458 | 28.33° C | 38% | 1014.8 hPa | 0 mm | - | 7 W/m² | - |
| 1788142155 | 28.89° C | 35% | 1015 hPa | 0 mm | - | 12 W/m² | - |
| 1788141854 | 28.89° C | 36% | 1015 hPa | 0 mm | - | 17 W/m² | - |
| 1788141549 | 28.89° C | 37% | 1014.9 hPa | 0 mm | - | 23 W/m² | - |
| 1788141245 | 29.44° C | 37% | 1014.7 hPa | 0 mm | - | 28 W/m² | - |
| 1788140945 | 29.44° C | 39% | 1014.9 hPa | 0 mm | - | 34 W/m² | - |
| 1788140639 | 29.44° C | 39% | 1014.9 hPa | 0 mm | - | 40 W/m² | - |
| 1788140335 | 29.44° C | 40% | 1015.2 hPa | 0 mm | - | 47 W/m² | - |
| 1788140030 | 30° C | 39% | 1015.3 hPa | 0 mm | - | 54 W/m² | - |
| 1788139724 | 30° C | 37% | 1015.2 hPa | 0 mm | - | 64 W/m² | - |
| 1788139420 | 30° C | 36% | 1015 hPa | 0 mm | - | 74 W/m² | - |
| 1788139120 | 30° C | 36% | 1015 hPa | 0 mm | - | 86 W/m² | - |
| 1788138814 | 30.56° C | 34% | 1015 hPa | 0 mm | - | 101 W/m² | - |
| 1788138505 | 30.56° C | 34% | 1015.2 hPa | 0 mm | - | 113 W/m² | - |
| 1788138204 | 30.56° C | 34% | 1014.8 hPa | 0 mm | - | 129 W/m² | - |
| 1788137900 | 30.56° C | 36% | 1014.8 hPa | 0 mm | - | 144 W/m² | - |
| 1788137596 | 30.56° C | 35% | 1014.9 hPa | 0 mm | - | 160 W/m² | - |
* Rain latest hour (hover to see other rain measurements)
** Current wind speed in m/s (hover to see current wind gust speed)